1337644829314,163.317
1337644889314,163.331
1337644949314,163.765
1337645009314,163.094
1337645069314,163.536
1337645129314,163.621
1337645189314,163.551
1337645249314,163.410
1337645309314,163.573
1337645369314,163.401
1337645429314,163.410
1337645489314,163.661
1337645549314,163.651
1337645609314,163.723
1337645669314,163.605
1337645729314,163.582
1337645789314,163.537
1337645849314,163.561
1337645909314,163.843
1337645969314,163.587
1337646029314,163.657
1337646089314,163.645
1337646149314,163.533
1337646209314,163.943
1337646269314,163.810
1337646329314,163.670
1337646389314,163.643
1337646449314,163.689
1337646509314,163.592
1337646569314,163.492
1337646629314,163.764
1337646689314,163.947
1337646749314,163.726
1337646809314,163.748
1337646869314,163.653
1337646929314,163.893
1337646989314,163.946
1337647049314,163.686
1337647109314,163.909
1337647169314,163.904
1337647229314,163.706
1337647289314,163.563
1337647349314,164.206
1337647409314,163.938
1337647469314,163.885
1337647529314,164.146
1337647589314,163.972
1337647649314,163.986
1337647709314,163.574
1337647769314,164.073
1337647829314,163.768
1337647889314,164.289
1337647949314,164.010
1337648009314,163.676
1337648069314,164.346
1337648129314,164.039
1337648189314,164.033
1337648249314,163.965
1337648309314,163.994
1337648369314,164.215
1337648429325,163.606
1337648489325,164.015
1337648549325,164.100
1337648609325,163.804
1337648669325,164.165
1337648729325,163.754
1337648789325,164.170
1337648849325,163.860
1337648909325,163.983
1337648969325,163.837
1337649029325,163.843
1337649089325,163.437
1337649149325,163.694
1337649209325,163.517
1337649269325,163.633
1337649329325,163.560
1337649389325,163.550
1337649449325,163.347
1337649509325,163.486
1337649569325,163.359
1337649629325,163.414
1337649689325,163.284
1337649749325,163.547
1337649809325,163.628
1337649869325,163.159
1337649929325,163.332
1337649989325,163.388
1337650049325,163.669
1337650109325,163.303
1337650169325,163.484
1337650229325,163.370
1337650289325,163.248
1337650349325,163.750
1337650409325,163.290
1337650469325,163.028
1337650529325,163.414
1337650589325,163.172
1337650649325,163.218
1337650709325,163.003
1337650769325,163.127
1337650829325,163.021
1337650889325,163.002
1337650949325,163.097
1337651009325,162.958
1337651069325,163.619
1337651129325,163.076
1337651189325,163.228
1337651249325,163.052
1337651309325,162.937
1337651369325,162.881
1337651429325,162.958
1337651489325,163.004
1337651549325,163.567
1337651609325,162.726
1337651669325,162.912
1337651729325,162.719
1337651789325,162.774
1337651849325,162.765
1337651909325,162.389
1337651969325,162.942
1337652029336,162.837
1337652089336,162.475
1337652149336,162.489
1337652209336,162.682
1337652269336,162.762
1337652329336,162.812
1337652389336,163.032
1337652449336,162.566
1337652509336,162.584
1337652569336,162.705
1337652629336,162.312
1337652689336,162.484
1337652749336,162.667
1337652809336,161.814
1337652869336,162.653
1337652929336,162.432
1337652989336,162.664
1337653049336,162.202
1337653109336,162.055
1337653169336,162.270
1337653229336,162.504
1337653289336,162.357
1337653349336,162.580
1337653409336,162.128
1337653469336,162.038
1337653529336,162.302
1337653589336,162.052
1337653649336,162.013
1337653709336,162.197
1337653769336,161.956
1337653829336,162.278
1337653889336,162.396
1337653949336,162.033
1337654009336,162.323
1337654069336,162.057
1337654129336,161.997
1337654189336,162.447
1337654249336,162.239
1337654309336,162.370
1337654369336,161.863
1337654429336,162.071
1337654489336,162.094
1337654549336,161.763
1337654609336,162.348
1337654669336,162.042
1337654729336,162.029
1337654789336,162.077
1337654849336,162.211
1337654909336,162.177
1337654969336,162.204
1337655029336,162.215
1337655089336,162.256
1337655149336,162.550
1337655209336,162.441
1337655269336,162.221
1337655329336,161.919
1337655389336,162.237
1337655449336,162.233
1337655509336,162.264
1337655569336,162.084
1337655629346,162.442
1337655689346,162.359
1337655749346,162.262
1337655809346,162.386
1337655869346,162.507
1337655929346,162.285
1337655989346,162.273
1337656049346,162.626
1337656109346,162.534
1337656169346,162.381
1337656229346,162.061
1337656289346,162.272
1337656349346,162.347
1337656409346,161.925
1337656469346,161.985
1337656529346,162.240
1337656589346,162.139
1337656649346,162.617
1337656709346,162.315
1337656769346,162.294
1337656829346,162.391
1337656889346,162.295
1337656949346,162.434
1337657009346,162.011
1337657069346,162.267
1337657129346,162.424
1337657189346,162.100
1337657249346,162.308
1337657309346,161.983
1337657369346,162.007
1337657429346,162.366
1337657489346,162.504
1337657549346,162.400
1337657609346,162.584
1337657669346,162.222
1337657729346,162.327
1337657789346,162.547
1337657849346,162.681
1337657909346,162.269
1337657969346,162.494
1337658029346,162.385
1337658089346,162.812
1337658149346,162.565
1337658209346,162.400
1337658269346,162.183
1337658329346,162.443
1337658389346,162.562
1337658449346,162.496
1337658509346,162.407
1337658569346,162.471
1337658629346,162.426
1337658689346,162.253
1337658749346,162.201
1337658809346,162.180
1337658869346,162.288
1337658929346,161.996
1337658989346,162.554
1337659049346,162.204
1337659109346,162.147
1337659169346,162.076
1337659229356,161.992
1337659289356,162.581
1337659349356,162.120
1337659409356,162.233
1337659469356,162.149
1337659529356,162.142
1337659589356,162.079
1337659649356,161.687
1337659709356,162.008
1337659769356,162.049
1337659829356,162.325
1337659889356,162.284
1337659949356,162.289
1337660009356,161.862
1337660069356,161.848
1337660129356,162.057
1337660189356,162.017
1337660249356,162.249
1337660309356,162.148
1337660369356,162.024
1337660429356,161.855
1337660489356,162.202
1337660549356,161.746
1337660609356,161.909
1337660669356,161.617
1337660729356,161.846
1337660789356,161.698
1337660849356,162.139
1337660909356,161.917
1337660969356,161.779
1337661029356,161.968
1337661089356,161.623
1337661149356,161.600
1337661209356,161.751
1337661269356,161.677
1337661329356,161.927
1337661389356,161.867
1337661449356,161.478
1337661509356,161.487
1337661569356,161.555
1337661629356,161.797
1337661689356,161.554
1337661749356,161.625
1337661809356,161.531
1337661869356,161.764
1337661929356,161.198
1337661989356,161.697
1337662049356,161.531
1337662109356,161.413
1337662169356,161.371
1337662229356,161.434
1337662289356,161.456
1337662349356,161.349
1337662409356,161.636
1337662469356,161.401
1337662529356,161.226
1337662589356,161.178
1337662649356,161.383
1337662709356,161.068
1337662769356,161.188
1337662829366,161.316
1337662889366,161.422
1337662949366,161.378
1337663009366,160.855
1337663069366,161.387
1337663129366,161.204
1337663189366,161.068
1337663249366,160.980
1337663309366,161.369
1337663369366,161.017
1337663429366,161.019
1337663489366,161.057
1337663549366,161.241
1337663609366,160.775
1337663669366,160.954
1337663729366,161.222
1337663789366,161.072
1337663849366,160.979
1337663909366,160.952
1337663969366,161.273
1337664029366,161.237
1337664089366,161.083
1337664149366,161.188
1337664209366,160.989
1337664269366,161.104
1337664329366,160.825
1337664389366,161.284
1337664449366,161.338
1337664509366,161.205
1337664569366,161.225
1337664629366,161.131
1337664689366,161.009
1337664749366,161.193
1337664809366,161.214
1337664869366,161.280
1337664929366,161.214
1337664989366,161.201
1337665049366,161.257
1337665109366,161.223
1337665169366,161.205
1337665229366,161.307
1337665289366,161.268
1337665349366,161.022
1337665409366,160.714
1337665469366,161.720
1337665529366,161.157
1337665589366,161.231
1337665649366,161.666
1337665709366,161.507
1337665769366,161.531
1337665829366,161.302
1337665889366,161.264
1337665949366,161.216
1337666009366,161.483
1337666069366,161.218
1337666129366,161.519
1337666189366,161.555
1337666249366,161.464
1337666309366,161.108
1337666369366,161.320
1337666429376,161.448
1337666489376,161.386
1337666549376,161.583
1337666609376,161.503
1337666669376,161.254
1337666729376,161.023
1337666789376,161.419
1337666849376,161.305
1337666909376,161.050
1337666969376,161.302
1337667029376,161.222
1337667089376,161.447
1337667149376,161.247
1337667209376,161.158
1337667269376,161.350
1337667329376,160.988
1337667389376,161.253
1337667449376,161.418
1337667509376,161.341
1337667569376,161.233
1337667629376,160.901
1337667689376,160.933
1337667749376,161.157
1337667809376,161.013
1337667869376,161.029
1337667929376,160.933
1337667989376,160.987
1337668049376,161.147
1337668109376,161.089
1337668169376,161.210
1337668229376,161.339
1337668289376,161.054
1337668349376,160.900
1337668409376,161.274
1337668469376,160.965
1337668529376,161.171
1337668589376,160.877
1337668649376,161.130
1337668709376,161.040
1337668769376,161.138
1337668829376,161.311
1337668889376,161.105
1337668949376,161.113
1337669009376,160.999
1337669069376,161.153
1337669129376,161.058
1337669189376,161.286
1337669249376,160.987
1337669309376,160.863
1337669369376,161.017
1337669429376,161.103
1337669489376,161.244
1337669549376,161.131
1337669609376,161.072
1337669669376,160.995
1337669729376,160.910
1337669789376,160.810
1337669849376,161.037
1337669909376,161.038
1337669969376,161.441
1337670029386,161.011
1337670089386,161.172
1337670149386,161.340
1337670209386,161.017
1337670269386,161.312
1337670329386,161.439
1337670389386,161.264
1337670449386,161.008
1337670509386,161.262
1337670569386,161.109
1337670629386,161.111
1337670689386,161.369
1337670749386,160.984
1337670809386,161.252
1337670869386,161.367
1337670929386,161.111
1337670989386,160.911
1337671049386,161.081
1337671109386,161.074
1337671169386,161.186
1337671229386,161.279
1337671289386,161.497
1337671349386,161.132
1337671409386,161.361
1337671469386,161.393
1337671529386,161.284
1337671589386,161.110
1337671649386,161.378
1337671709386,161.481
1337671769386,161.059
1337671829386,161.378
1337671889386,161.213
1337671949386,161.131
1337672009386,161.270
1337672069386,161.195
1337672129386,160.948
1337672189386,161.087
1337672249386,161.068
1337672309386,161.240
1337672369386,160.905
1337672429386,161.150
1337672489386,161.090
1337672549386,160.990
1337672609386,161.199
1337672669386,161.208
1337672729386,161.493
1337672789386,161.153
1337672849386,161.074
1337672909386,161.262
1337672969386,161.282
1337673029386,160.951
1337673089386,161.028
1337673149386,160.854
1337673209386,161.185
1337673269386,161.172
1337673329386,161.103
1337673389386,160.732
1337673449386,160.767
1337673509386,161.034
1337673569386,161.021
1337673629396,161.052
1337673689396,160.806
1337673749396,161.184
1337673809396,160.837
1337673869396,160.892
1337673929396,160.980
1337673989396,160.974
1337674049396,160.860
1337674109396,160.788
1337674169396,161.030
1337674229396,161.312
1337674289396,160.955
1337674349396,161.203
1337674409396,160.953
1337674469396,161.051
1337674529396,161.141
1337674589396,161.268
1337674649396,160.725
1337674709396,161.043
1337674769396,161.092
1337674829396,160.891
1337674889396,160.801
1337674949396,161.327
1337675009396,160.701
1337675069396,160.752
1337675129396,161.243
1337675189396,160.921
1337675249396,160.882
1337675309396,160.747
1337675369396,160.983
1337675429396,161.060
1337675489396,161.485
1337675549396,160.935
1337675609396,160.996
1337675669396,160.834
1337675729396,160.912
1337675789396,161.201
1337675849396,160.920
1337675909396,161.142
1337675969396,160.962
1337676029396,161.008
1337676089396,161.205
1337676149396,161.296
1337676209396,161.077
1337676269396,161.297
1337676329396,161.239
1337676389396,161.520
1337676449396,161.034
1337676509396,161.297
1337676569396,161.558
1337676629396,160.950
1337676689396,161.297
1337676749396,161.424
1337676809396,161.066
1337676869396,161.144
1337676929396,161.257
1337676989396,161.181
1337677049396,161.345
1337677109396,161.084
1337677169396,161.397
1337677229405,161.253
1337677289405,161.258
1337677349405,161.512
1337677409405,161.352
1337677469405,161.206
1337677529405,161.043
1337677589405,161.274
1337677649405,161.284
1337677709405,161.822
1337677769405,161.256
1337677829405,161.197
1337677889405,161.092
1337677949405,161.096
1337678009405,161.444
1337678069405,161.063
1337678129405,161.140
1337678189405,161.174
1337678249405,161.503
1337678309405,161.192
1337678369405,161.483
1337678429405,161.074
1337678489405,161.547
1337678549405,161.380
1337678609405,161.262
1337678669405,161.243
1337678729405,161.221
1337678789405,161.452
1337678849405,161.313
1337678909405,161.164
1337678969405,161.180
1337679029405,161.198
1337679089405,160.973
1337679149405,161.161
1337679209405,161.348
1337679269405,161.318
1337679329405,160.971
1337679389405,160.863
1337679449405,161.270
1337679509405,161.327
1337679569405,161.195
1337679629405,161.173
1337679689405,160.993
1337679749405,161.040
1337679809405,161.210
1337679869405,161.150
1337679929405,161.278
1337679989405,161.255
1337680049405,161.041
1337680109405,161.246
1337680169405,161.159
1337680229405,161.108
1337680289405,161.152
1337680349405,161.047
1337680409405,160.820
1337680469405,160.830
1337680529405,160.700
1337680589405,160.876
1337680649405,161.334
1337680709405,161.026
1337680769405,162.629
1337680829415,162.052
1337680889415,160.780
1337680949415,160.760
1337681009415,161.063
1337681069415,161.117
1337681129415,161.265
1337681189415,160.815
1337681249415,160.856
1337681309415,160.888
1337681369415,161.157
1337681429415,161.156
1337681489415,160.745
1337681549415,160.918
1337681609415,161.089
1337681669415,160.969
1337681729415,160.540
1337681789415,160.635
1337681849415,160.463
1337681909415,160.973
1337681969415,160.219
1337682029415,160.368
1337682089415,160.791
1337682149415,160.447
1337682209415,160.712
1337682269415,160.593
1337682329415,160.571
1337682389415,160.352
1337682449415,160.627
1337682509415,160.692
1337682569415,160.890
1337682629415,160.206
1337682689415,160.504
1337682749415,160.411
1337682809415,160.283
1337682869415,160.523
1337682929415,160.213
1337682989415,160.228
1337683049415,160.324
1337683109415,160.697
1337683169415,160.175
1337683229415,160.403
1337683289415,160.442
1337683349415,160.048
1337683409415,160.368
1337683469415,160.158
1337683529415,160.366
1337683589415,160.054
1337683649415,160.641
1337683709415,160.038
1337683769415,160.494
1337683829415,160.227
1337683889415,160.232
1337683949415,160.615
1337684009415,160.445
1337684069415,160.334
1337684129415,160.312
1337684189415,160.571
1337684249415,160.287
1337684309415,160.125
1337684369415,160.528
1337684429425,160.349
1337684489425,160.359
1337684549425,160.301
1337684609425,160.466
1337684669425,160.098
1337684729425,160.071
1337684789425,160.165
1337684849425,160.385
1337684909425,160.541
1337684969425,160.475
1337685029425,160.443
1337685089425,160.293
1337685149425,160.241
1337685209425,160.324
1337685269425,160.349
1337685329425,160.323
1337685389425,160.552
1337685449425,160.503
1337685509425,160.483
1337685569425,160.720
1337685629425,160.393
1337685689425,160.123
1337685749425,160.483
1337685809425,160.120
1337685869425,160.497
1337685929425,160.591
1337685989425,160.709
1337686049425,160.256
1337686109425,160.211
1337686169425,160.493
1337686229425,160.372
1337686289425,160.433
1337686349425,160.323
1337686409425,160.254
1337686469425,160.683
1337686529425,160.682
1337686589425,160.778
1337686649425,160.606
1337686709425,160.469
1337686769425,160.791
1337686829425,160.520
1337686889425,160.556
1337686949425,160.683
1337687009425,160.382
1337687069425,160.552
1337687129425,160.399
1337687189425,160.203
1337687249425,160.539
1337687309425,160.450
1337687369425,160.605
1337687429425,160.347
1337687489425,160.303
1337687549425,160.238
1337687609425,160.476
1337687669425,160.943
1337687729425,160.865
1337687789425,160.630
1337687849425,160.416
1337687909425,160.549
1337687969425,160.537
1337688029434,160.863
1337688089434,160.770
1337688149434,160.621
1337688209434,160.417
1337688269434,160.422
1337688329434,160.653
1337688389434,160.634
1337688449434,160.875
1337688509434,160.333
1337688569434,160.700
1337688629434,160.427
1337688689434,160.806
1337688749434,160.596
1337688809434,160.745
1337688869434,160.840
1337688929434,160.789
1337688989434,160.832
1337689049434,160.866
1337689109434,161.277
1337689169434,161.324
1337689229434,160.845
1337689289434,160.751
1337689349434,160.888
1337689409434,160.819
1337689469434,161.081
1337689529434,160.721
1337689589434,160.837
1337689649434,160.829
1337689709434,160.758
1337689769434,161.168
1337689829434,160.952
1337689889434,161.293
1337689949434,160.890
1337690009434,161.170
1337690069434,161.286
1337690129434,161.175
1337690189434,161.037
1337690249434,161.341
1337690309434,161.642
1337690369434,161.328
1337690429434,161.340
1337690489434,161.505
1337690549434,161.775
1337690609434,161.520
1337690669434,161.628
1337690729434,161.256
1337690789434,161.377
1337690849434,161.812
1337690909434,161.269
1337690969434,161.503
1337691029434,161.491
1337691089434,161.522
1337691149434,161.684
1337691209434,161.832
1337691269434,161.715
1337691329434,161.694
1337691389434,161.858
1337691449434,161.624
1337691509434,161.937
1337691569434,161.978
1337691629444,161.820
1337691689444,161.678
1337691749444,161.821
1337691809444,161.954
1337691869444,161.928
1337691929444,162.211
1337691989444,162.027
1337692049444,161.775
1337692109444,161.925
1337692169444,161.752
1337692229444,161.922
1337692289444,161.795
1337692349444,161.815
1337692409444,161.931
1337692469444,161.708
1337692529444,161.740
1337692589444,161.714
1337692649444,161.752
1337692709444,161.950
1337692769444,162.014
1337692829444,161.878
1337692889444,161.784
1337692949444,162.195
1337693009444,161.895
1337693069444,161.788
1337693129444,162.052
1337693189444,161.800
1337693249444,161.658
1337693309444,161.741
1337693369444,161.471
1337693429444,161.743
1337693489444,161.561
1337693549444,161.798
1337693609444,161.976
1337693669444,161.468
1337693729444,161.429
1337693789444,161.151
1337693849444,161.522
1337693909444,161.475
1337693969444,161.552
1337694029444,161.223
1337694089444,161.527
1337694149444,161.252
1337694209444,161.358
1337694269444,161.252
1337694329444,161.415
1337694389444,160.937
1337694449444,161.430
1337694509444,161.099
1337694569444,161.542
1337694629444,161.002
1337694689444,161.198
1337694749444,160.815
1337694809444,161.039
1337694869444,160.793
1337694929444,160.945
1337694989444,160.725
1337695049444,160.971
1337695109444,161.135
1337695169444,161.002
1337695229453,160.616
1337695289453,160.815
1337695349453,160.500
1337695409453,160.920
1337695469453,160.960
1337695529453,160.867
1337695589453,160.704
1337695649453,160.642
1337695709453,160.790
1337695769453,160.956
1337695829453,160.803
1337695889453,160.638
1337695949453,160.701
1337696009453,160.719
1337696069453,160.899
1337696129453,160.722
1337696189453,161.031
1337696249453,160.492
1337696309453,160.646
1337696369453,160.910
1337696429453,160.607
1337696489453,160.859
1337696549453,160.733
1337696609453,160.908
1337696669453,160.767
1337696729453,160.703
1337696789453,160.675
1337696849453,160.666
1337696909453,160.694
1337696969453,160.535
1337697029453,160.637
1337697089453,160.708
1337697149453,160.773
1337697209453,160.310
1337697269453,160.668
1337697329453,160.649
1337697389453,160.501
1337697449453,160.544
1337697509453,160.547
1337697569453,160.486
1337697629453,160.382
1337697689453,160.360
1337697749453,160.585
1337697809453,160.433
1337697869453,160.265
1337697929453,160.211
1337697989453,160.496
1337698049453,160.551
1337698109453,160.198
1337698169453,160.542
1337698229453,160.360
1337698289453,160.338
1337698349453,160.317
1337698409453,159.990
1337698469453,160.359
1337698529453,160.330
1337698589453,160.581
1337698649453,160.412
1337698709453,160.186
1337698769453,160.550
1337698829463,160.250
1337698889463,160.438
1337698949463,160.507
1337699009463,160.312
1337699069463,160.476
1337699129463,160.358
1337699189463,160.444
1337699249463,160.289
1337699309463,160.157
1337699369463,160.110
1337699429463,160.366
1337699489463,160.296
1337700029463,160.357
1337700089463,160.111
1337700149463,160.154
1337700209463,159.975
1337700269463,160.060
1337700329463,160.011
1337700389463,159.625
1337700449463,159.849
1337700509463,159.917
1337700569463,159.812
1337700629463,160.261
1337700689463,159.994
1337700749463,160.157
1337700809463,159.756
1337700869463,160.280
1337700929463,160.173
1337700989463,160.215
1337701049463,159.898
1337701109463,160.329
1337701169463,160.049
1337701229463,160.105
1337701289463,159.909
1337701349463,159.818
1337701409463,160.008
1337701469463,159.657
1337701529463,160.018
1337701589463,160.024
1337701649463,159.650
1337701709463,160.134
1337701769463,159.781
1337701829463,159.712
1337701889463,160.084
1337701949463,159.703
1337702009463,159.902
1337702069463,160.197
1337702129463,160.090
1337702189463,159.871
1337702249463,159.775
1337702309463,159.888
1337702369463,159.887
1337702429473,160.132
1337702489473,159.962
1337702549473,160.059
1337702609473,159.820
1337702669473,159.935
1337702729473,160.130
1337702789473,159.803
1337702849473,159.899
1337702909473,160.066
1337702969473,159.870
1337703029473,159.909
1337703089473,159.840
1337703149473,159.745
1337703209473,160.091
1337703269473,159.644
1337703329473,159.954
1337703389473,159.669
1337703449473,160.123
1337703509473,159.704
1337703569473,159.961
1337703629473,159.584
1337703689473,159.764
1337703749473,159.980
1337703809473,160.174
1337703869473,159.522
1337703929473,159.937
1337703989473,159.931
1337704049473,159.879
1337704109473,160.140
1337704169473,159.610
1337704229473,159.802
1337704289473,160.003
1337704349473,160.148
1337704409473,160.223
1337704469473,159.870
1337704529473,159.858
1337704589473,160.088
1337704649473,159.949
1337704709473,160.279
1337704769473,159.887
1337704829473,159.932
1337704889473,159.933
1337704949473,160.011
1337705009473,159.966
1337705069473,160.177
1337705129473,160.335
1337705189473,160.077
1337705249473,160.179
1337705309473,159.720
1337705369473,160.017
1337705429473,160.205
1337705489473,159.820
1337705549473,160.127
1337705609473,160.433
1337705669473,160.151
1337705729473,159.683
1337705789473,159.933
1337705849473,160.090
1337705909473,159.898
1337705969473,160.267
1337706029483,160.016
1337706089483,159.914
1337706149483,160.272
1337706209483,160.024
1337706269483,160.119
1337706329483,160.030
1337706389483,160.068
1337706449483,160.227
1337706509483,159.888
1337706569483,160.107
1337706629483,160.396
1337706689483,160.379
1337706749483,160.228
1337706809483,160.439
1337706869483,160.375
1337706929483,160.221
1337706989483,160.078
1337707049483,160.374
1337707109483,160.311
1337707169483,160.203
1337707229483,160.330
1337707289483,160.290
1337707349483,160.036
1337707409483,160.358
1337707469483,160.428
1337707529483,160.120
1337707589483,160.174
1337707649483,160.112
1337707709483,159.921
1337707769483,160.322
1337707829483,160.506
1337707889483,160.426
1337707949483,160.517
1337708009483,160.148
1337708069483,160.428
1337708129483,160.276
1337708189483,160.395
1337708249483,160.200
1337708309483,160.197
1337708369483,160.193
1337708429483,160.348
1337708489483,160.429
1337708549483,160.446
1337708609483,160.334
1337708669483,160.634
1337708729483,160.104
1337708789483,160.346
1337708849483,160.307
1337708909483,160.368
1337708969483,160.736
1337709029483,160.668
1337709089483,160.320
1337709149483,160.756
1337709209483,160.594
1337709269483,160.405
1337709329483,160.610
1337709389483,160.577
1337709449483,160.650
1337709509483,160.237
1337709569483,160.210
1337709629493,160.350
1337709689493,160.531
1337709749493,160.521
1337709809493,160.609
1337709869493,160.481
1337709929493,160.527
1337709989493,160.685
1337710049493,160.638
1337710109493,160.674
1337710169493,160.886
1337710229493,160.952
1337710289493,160.556
1337710349493,160.547
1337710409493,160.348
1337710469493,160.871
1337710529493,160.687
1337710589493,160.828
1337710649493,160.836